Pine River, MN

7:18 AM CDT on October 21, 2017 (GMT -0500)
Pine River Regional

Weather History for KPWC - August, 2014

Change the Weather History Date:

Wednesday, August 27, 2014

  Actual Average Record
Temperature  
Mean Temperature 60 °F -  
Max Temperature 68 °F 74 °F 87 °F (1999)
Min Temperature 51 °F 52 °F 42 °F (2003)
Degree Days  
Heating Degree Days 6    
Growing Degree Days 10 (Base 50)    
Moisture  
Dew Point 56 °F    
Average Humidity 88    
Maximum Humidity 100    
Minimum Humidity 68    
Precipitation  
Precipitation 0.00 in - - ()
Sea Level Pressure  
Sea Level Pressure 30.21 in    
Wind  
Wind Speed 1 mph (South)    
Max Wind Speed 7 mph    
Max Gust Speed -    
Visibility 8 miles    
Events Fog , Rain    
Averages and records for this station are not official NWS values.
T = Trace of Precipitation, MM = Missing Value Source: NWS Daily Summary

Daily Weather History Graph

Daily Weather History Graph

Search for Another Location

Airport or City:

Trip Planner

Search our weather history database for the weather conditions in past years. The results will help you decide how hot, cold, wet, or windy it might be!

Date:

Astronomy

Aug. 27, 2014 Rise Set
Actual Time 6:30 AM CDT 8:06 PM CDT
Civil Twilight 5:59 AM CDT 8:37 PM CDT
Nautical Twilight 5:20 AM CDT 9:16 PM CDT
Astronomical Twilight 4:38 AM CDT 9:58 PM CDT
Moon 8:37 AM CDT (8/27) 8:47 PM CDT (8/27)
Length of Visible Light 14h 38m
Length of Day
13h 35m
Waxing Crescent, 4% of the Moon is Illuminated
Aug 27
Waxing Crescent
Sep 2
First Quarter
Sep 8
Full
Sep 15
Last Quarter
Sep 24
New

Hourly Weather History & Observations

Time (CDT) Temp. Dew Point Humidity Pressure Visibility Wind Dir Wind Speed Gust Speed Precip Events Conditions
12:14 AM 55.4 °F 55.4 °F 100% 30.23 in 10.0 mi Calm Calm - N/A   Mostly Cloudy
12:34 AM 55.4 °F 55.4 °F 100% 30.24 in 10.0 mi Calm Calm - N/A Rain Light Rain
12:53 AM 55.4 °F 55.4 °F 100% 30.24 in 10.0 mi Calm Calm - N/A   Overcast
1:14 AM 55.4 °F 55.4 °F 100% 30.24 in 10.0 mi Calm Calm - N/A   Overcast
1:33 AM 55.4 °F 55.4 °F 100% 30.23 in 7.0 mi Calm Calm - N/A   Overcast
1:54 AM 55.4 °F 55.4 °F 100% 30.23 in 10.0 mi Calm Calm - N/A   Overcast
2:13 AM 55.4 °F 55.4 °F 100% 30.23 in 10.0 mi Calm Calm - N/A   Overcast
2:31 AM 55.4 °F 55.4 °F 100% 30.23 in 10.0 mi Calm Calm - N/A   Overcast
2:53 AM 55.4 °F 55.4 °F 100% 30.23 in 10.0 mi Calm Calm - N/A   Overcast
3:14 AM 55.4 °F 55.4 °F 100% 30.23 in 10.0 mi Calm Calm - N/A   Overcast
3:34 AM 55.4 °F 55.4 °F 100% 30.23 in 10.0 mi Calm Calm - N/A   Overcast
3:53 AM 55.4 °F 55.4 °F 100% 30.22 in 10.0 mi Calm Calm - N/A   Overcast
4:13 AM 55.4 °F 55.4 °F 100% 30.22 in 10.0 mi Calm Calm - N/A   Overcast
4:34 AM 55.4 °F 55.4 °F 100% 30.22 in 5.0 mi Calm Calm - N/A   Overcast
4:53 AM 55.4 °F 55.4 °F 100% 30.23 in 7.0 mi Calm Calm - N/A   Overcast
5:13 AM 53.6 °F 53.6 °F 100% 30.23 in 7.0 mi Calm Calm - N/A   Mostly Cloudy
5:34 AM 53.6 °F 53.6 °F 100% 30.23 in 0.8 mi Calm Calm - N/A   Overcast
5:54 AM 51.8 °F 51.8 °F 100% 30.24 in 0.2 mi Calm Calm - N/A Fog Fog
6:13 AM 53.6 °F 53.6 °F 100% 30.24 in 0.8 mi Calm Calm - N/A   Overcast
6:33 AM 51.8 °F 51.8 °F 100% 30.24 in 1.5 mi Calm Calm - N/A   Overcast
6:53 AM 51.8 °F 51.8 °F 100% 30.23 in 0.5 mi Calm Calm - N/A Fog Fog
7:13 AM 51.8 °F 51.8 °F 100% 30.23 in 0.2 mi Calm Calm - N/A Fog Fog
7:34 AM 53.6 °F 53.6 °F 100% 30.23 in 0.2 mi Calm Calm - N/A Fog Fog
7:53 AM 53.6 °F 53.6 °F 100% 30.23 in 4.0 mi Calm Calm - N/A   Scattered Clouds
8:14 AM 55.4 °F 55.4 °F 100% 30.23 in 10.0 mi Calm Calm - N/A   Clear
8:33 AM 55.4 °F 55.4 °F 100% 30.24 in 10.0 mi Calm Calm - N/A   Clear
8:54 AM 57.2 °F 57.2 °F 100% 30.24 in 10.0 mi Calm Calm - N/A   Clear
9:14 AM 60.8 °F 55.4 °F 82% 30.24 in 10.0 mi Calm Calm - N/A   Clear
9:34 AM 60.8 °F 55.4 °F 82% 30.24 in 10.0 mi Calm Calm - N/A   Mostly Cloudy
10:14 AM 62.6 °F 53.6 °F 72% 30.25 in 10.0 mi Calm Calm - N/A   Clear
10:34 AM 62.6 °F 55.4 °F 77% 30.25 in 10.0 mi Calm Calm - N/A   Scattered Clouds
11:14 AM 64.4 °F 55.4 °F 73% 30.25 in 10.0 mi SE 3.5 mph - N/A   Overcast
11:34 AM 64.4 °F 55.4 °F 73% 30.25 in 10.0 mi Calm Calm - N/A   Overcast
11:53 AM 64.4 °F 55.4 °F 73% 30.25 in 10.0 mi South 4.6 mph - N/A   Overcast
12:14 PM 64.4 °F 55.4 °F 73% 30.25 in 10.0 mi Calm Calm - N/A   Mostly Cloudy
12:34 PM 66.2 °F 55.4 °F 68% 30.24 in 10.0 mi South 6.9 mph - N/A   Mostly Cloudy
12:53 PM 66.2 °F 55.4 °F 68% 30.24 in 10.0 mi South 5.8 mph - N/A   Overcast
1:13 PM 66.2 °F 57.2 °F 73% 30.23 in 10.0 mi South 5.8 mph - N/A   Overcast
1:34 PM 66.2 °F 57.2 °F 73% 30.23 in 10.0 mi SSE 3.5 mph - N/A   Mostly Cloudy
1:54 PM 66.2 °F 55.4 °F 68% 30.23 in 10.0 mi South 6.9 mph - N/A   Overcast
2:13 PM 66.2 °F 55.4 °F 68% 30.22 in 10.0 mi SW 4.6 mph - N/A   Overcast
2:34 PM 66.2 °F 57.2 °F 73% 30.22 in 10.0 mi SSW 3.5 mph - N/A   Overcast
2:54 PM 68.0 °F 57.2 °F 68% 30.21 in 10.0 mi South 3.5 mph - N/A   Mostly Cloudy
3:14 PM 68.0 °F 57.2 °F 68% 30.21 in 10.0 mi South 3.5 mph - N/A   Mostly Cloudy
3:33 PM 68.0 °F 57.2 °F 68% 30.21 in 10.0 mi South 3.5 mph - N/A   Overcast
3:54 PM 68.0 °F 57.2 °F 68% 30.20 in 10.0 mi SSW 3.5 mph - N/A   Overcast
4:14 PM 68.0 °F 57.2 °F 68% 30.20 in 10.0 mi South 4.6 mph - N/A   Overcast
4:33 PM 68.0 °F 57.2 °F 68% 30.19 in 10.0 mi South 3.5 mph - N/A   Overcast
4:54 PM 68.0 °F 57.2 °F 68% 30.19 in 10.0 mi South 5.8 mph - N/A   Overcast
5:13 PM 68.0 °F 57.2 °F 68% 30.18 in 10.0 mi South 4.6 mph - N/A   Overcast
5:34 PM 68.0 °F 57.2 °F 68% 30.18 in 10.0 mi South 5.8 mph - N/A   Overcast
5:54 PM 66.2 °F 59.0 °F 78% 30.18 in 10.0 mi South 4.6 mph - N/A   Mostly Cloudy
6:13 PM 66.2 °F 57.2 °F 73% 30.17 in 10.0 mi Calm Calm - N/A   Scattered Clouds
6:33 PM 66.2 °F 57.2 °F 73% 30.17 in 10.0 mi Calm Calm - N/A   Mostly Cloudy
6:53 PM 66.2 °F 59.0 °F 78% 30.17 in 10.0 mi SSW 3.5 mph - N/A   Scattered Clouds
7:14 PM 66.2 °F 59.0 °F 78% 30.16 in 10.0 mi Calm Calm - N/A   Clear
7:33 PM 64.4 °F 59.0 °F 83% 30.16 in 10.0 mi Calm Calm - N/A   Clear
7:53 PM 62.6 °F 57.2 °F 82% 30.16 in 10.0 mi Calm Calm - N/A   Clear
8:14 PM 60.8 °F 57.2 °F 88% 30.16 in 10.0 mi Calm Calm - N/A   Clear
8:33 PM 59.0 °F 59.0 °F 100% 30.16 in 10.0 mi Calm Calm - N/A   Clear
8:52 PM 57.2 °F 57.2 °F 100% 30.17 in 10.0 mi Calm Calm - N/A   Clear
9:14 PM 57.2 °F 57.2 °F 100% 30.16 in 10.0 mi Calm Calm - N/A   Clear
9:34 PM 57.2 °F 57.2 °F 100% 30.16 in 10.0 mi Calm Calm - N/A   Clear
9:53 PM 55.4 °F 55.4 °F 100% 30.16 in 10.0 mi Calm Calm - N/A   Clear
10:14 PM 55.4 °F 55.4 °F 100% 30.17 in 5.0 mi Calm Calm - N/A   Clear
10:33 PM 53.6 °F 53.6 °F 100% 30.17 in 4.0 mi Calm Calm - N/A   Scattered Clouds
10:54 PM 53.6 °F 53.6 °F 100% 30.17 in 5.0 mi Calm Calm - N/A   Scattered Clouds
11:14 PM 53.6 °F 53.6 °F 100% 30.17 in 1.2 mi Calm Calm - N/A   Mist
11:33 PM 53.6 °F 53.6 °F 100% 30.17 in 10.0 mi Calm Calm - N/A   Clear